Time,TemperatureF,DewpointF,PressureIn,WindDirection,WindDirectionDegrees,WindSpeedMPH,WindSpeedGustMPH,Humidity,HourlyPrecipIn,Conditions,Clouds,dailyrainin,SoftwareType,DateUTC
2013-03-31 00:00:00,39.0,20.5,30.20,WNW,292,0.0,3.0,47,0.00,,,0.00,Weather View 32 v70,2013-03-31 04:00:00,
2013-03-31 00:05:00,39.0,20.9,30.20,WNW,292,0.0,3.0,48,0.00,,,0.00,Weather View 32 v70,2013-03-31 04:05:00,
2013-03-31 00:10:00,39.0,22.4,30.20,WNW,292,0.0,3.0,51,0.00,,,0.00,Weather View 32 v70,2013-03-31 04:10:00,
2013-03-31 00:15:00,38.0,21.5,30.20,WNW,292,0.0,3.0,51,0.00,,,0.00,Weather View 32 v70,2013-03-31 04:15:00,
2013-03-31 00:20:00,38.0,21.0,30.20,WNW,292,0.0,3.0,50,0.00,,,0.00,Weather View 32 v70,2013-03-31 04:20:00,
2013-03-31 00:25:00,38.0,22.4,30.20,WNW,292,0.0,2.0,53,0.00,,,0.00,Weather View 32 v70,2013-03-31 04:25:00,
2013-03-31 00:30:00,38.0,22.4,30.21,WNW,292,0.0,2.0,53,0.00,,,0.00,Weather View 32 v70,2013-03-31 04:30:00,
2013-03-31 00:35:00,38.0,22.8,30.21,WNW,292,0.0,2.0,54,0.00,,,0.00,Weather View 32 v70,2013-03-31 04:35:00,
2013-03-31 00:40:00,38.0,28.4,30.21,WNW,292,0.0,2.0,68,0.00,,,0.00,Weather View 32 v70,2013-03-31 04:40:00,
2013-03-31 00:45:00,38.0,25.7,30.21,WNW,292,0.0,2.0,61,0.00,,,0.00,Weather View 32 v70,2013-03-31 04:45:00,
2013-03-31 00:50:00,37.0,23.6,30.21,WNW,292,0.0,1.0,58,0.00,,,0.00,Weather View 32 v70,2013-03-31 04:50:00,
2013-03-31 01:00:00,37.0,24.4,30.21,WNW,292,0.0,0.0,60,0.00,,,0.00,Weather View 32 v70,2013-03-31 05:00:00,
2013-03-31 01:10:00,35.0,23.7,30.22,WNW,292,0.0,0.0,63,0.00,,,0.00,Weather View 32 v70,2013-03-31 05:10:00,
2013-03-31 01:15:00,35.0,22.5,30.22,WNW,292,1.0,3.0,60,0.00,,,0.00,Weather View 32 v70,2013-03-31 05:15:00,
2013-03-31 01:20:00,35.0,22.5,30.22,WNW,292,0.0,3.0,60,0.00,,,0.00,Weather View 32 v70,2013-03-31 05:20:00,
2013-03-31 01:25:00,35.0,23.3,30.22,WNW,292,0.0,3.0,62,0.00,,,0.00,Weather View 32 v70,2013-03-31 05:25:00,
2013-03-31 01:30:00,34.0,22.3,30.23,WNW,292,0.0,3.0,62,0.00,,,0.00,Weather View 32 v70,2013-03-31 05:30:00,
2013-03-31 01:35:00,34.0,22.3,30.23,WNW,292,0.0,3.0,62,0.00,,,0.00,Weather View 32 v70,2013-03-31 05:35:00,
2013-03-31 01:40:00,34.0,23.8,30.23,WNW,292,0.0,3.0,66,0.00,,,0.00,Weather View 32 v70,2013-03-31 05:40:00,
2013-03-31 01:45:00,35.0,23.3,30.23,WNW,292,0.0,3.0,62,0.00,,,0.00,Weather View 32 v70,2013-03-31 05:45:00,
2013-03-31 01:50:00,35.0,23.7,30.21,WNW,292,0.0,3.0,63,0.00,,,0.00,Weather View 32 v70,2013-03-31 05:50:00,
2013-03-31 01:55:00,35.0,27.5,30.21,WNW,292,0.0,3.0,74,0.00,,,0.00,Weather View 32 v70,2013-03-31 05:55:00,
2013-03-31 02:00:00,36.0,26.5,30.21,WNW,292,0.0,3.0,68,0.00,,,0.00,Weather View 32 v70,2013-03-31 06:00:00,
2013-03-31 02:05:00,35.0,24.8,30.21,WNW,292,0.0,3.0,66,0.00,,,0.00,Weather View 32 v70,2013-03-31 06:05:00,
2013-03-31 02:10:00,34.0,24.2,30.22,WNW,292,0.0,3.0,67,0.00,,,0.00,Weather View 32 v70,2013-03-31 06:10:00,
2013-03-31 02:15:00,33.0,23.6,30.22,WNW,292,0.0,2.0,68,0.00,,,0.00,Weather View 32 v70,2013-03-31 06:15:00,
2013-03-31 02:20:00,33.0,23.9,30.23,WNW,292,0.0,1.0,69,0.00,,,0.00,Weather View 32 v70,2013-03-31 06:20:00,
2013-03-31 02:25:00,32.0,23.7,30.23,WNW,292,0.0,0.0,71,0.00,,,0.00,Weather View 32 v70,2013-03-31 06:25:00,
2013-03-31 02:30:00,32.0,23.3,30.23,WNW,292,0.0,0.0,70,0.00,,,0.00,Weather View 32 v70,2013-03-31 06:30:00,
2013-03-31 02:35:00,32.0,23.3,30.23,WNW,292,0.0,0.0,70,0.00,,,0.00,Weather View 32 v70,2013-03-31 06:35:00,
2013-03-31 02:40:00,32.0,23.3,30.23,WNW,292,0.0,0.0,70,0.00,,,0.00,Weather View 32 v70,2013-03-31 06:40:00,
2013-03-31 02:45:00,32.0,23.0,30.23,WNW,292,0.0,0.0,69,0.00,,,0.00,Weather View 32 v70,2013-03-31 06:45:00,
2013-03-31 02:50:00,32.0,23.3,30.23,WNW,292,0.0,0.0,70,0.00,,,0.00,Weather View 32 v70,2013-03-31 06:50:00,
2013-03-31 02:55:00,32.0,24.0,30.23,WNW,292,0.0,0.0,72,0.00,,,0.00,Weather View 32 v70,2013-03-31 06:55:00,
2013-03-31 03:00:00,32.0,24.0,30.23,WNW,292,0.0,0.0,72,0.00,,,0.00,Weather View 32 v70,2013-03-31 07:00:00,
2013-03-31 03:05:00,32.0,24.0,30.23,WNW,292,0.0,1.0,72,0.00,,,0.00,Weather View 32 v70,2013-03-31 07:05:00,
2013-03-31 03:10:00,32.0,24.3,30.23,WNW,292,0.0,1.0,73,0.00,,,0.00,Weather View 32 v70,2013-03-31 07:10:00,
2013-03-31 03:15:00,31.0,23.4,30.23,WNW,292,0.0,1.0,73,0.00,,,0.00,Weather View 32 v70,2013-03-31 07:15:00,
2013-03-31 03:20:00,31.0,24.0,30.23,WNW,292,0.0,1.0,75,0.00,,,0.00,Weather View 32 v70,2013-03-31 07:20:00,
2013-03-31 03:25:00,31.0,24.9,30.23,WNW,292,0.0,1.0,78,0.00,,,0.00,Weather View 32 v70,2013-03-31 07:25:00,
2013-03-31 03:30:00,30.0,24.6,30.23,WNW,292,0.0,1.0,80,0.00,,,0.00,Weather View 32 v70,2013-03-31 07:30:00,
2013-03-31 03:35:00,30.0,24.6,30.23,WNW,292,0.0,1.0,80,0.00,,,0.00,Weather View 32 v70,2013-03-31 07:35:00,
2013-03-31 03:40:00,30.0,24.3,30.23,WNW,292,0.0,1.0,79,0.00,,,0.00,Weather View 32 v70,2013-03-31 07:40:00,
2013-03-31 03:45:00,30.0,24.0,30.23,WNW,292,0.0,1.0,78,0.00,,,0.00,Weather View 32 v70,2013-03-31 07:45:00,
2013-03-31 03:50:00,30.0,24.6,30.23,WNW,292,0.0,1.0,80,0.00,,,0.00,Weather View 32 v70,2013-03-31 07:50:00,
2013-03-31 03:55:00,30.0,25.5,30.23,WNW,292,0.0,1.0,83,0.00,,,0.00,Weather View 32 v70,2013-03-31 07:55:00,
2013-03-31 04:00:00,30.0,25.2,30.23,WNW,292,0.0,2.0,82,0.00,,,0.00,Weather View 32 v70,2013-03-31 08:00:00,
2013-03-31 04:05:00,30.0,25.5,30.23,WNW,292,1.0,3.0,83,0.00,,,0.00,Weather View 32 v70,2013-03-31 08:05:00,
2013-03-31 04:10:00,30.0,25.5,30.23,WNW,292,1.0,3.0,83,0.00,,,0.00,Weather View 32 v70,2013-03-31 08:10:00,
2013-03-31 04:15:00,30.0,25.8,30.23,WNW,292,0.0,3.0,84,0.00,,,0.00,Weather View 32 v70,2013-03-31 08:15:00,
2013-03-31 04:20:00,30.0,25.2,30.23,WNW,292,1.0,3.0,82,0.00,,,0.00,Weather View 32 v70,2013-03-31 08:20:00,
2013-03-31 04:25:00,30.0,25.5,30.23,WNW,292,0.0,3.0,83,0.00,,,0.00,Weather View 32 v70,2013-03-31 08:25:00,
2013-03-31 04:30:00,29.0,25.1,30.24,WNW,292,0.0,3.0,85,0.00,,,0.00,Weather View 32 v70,2013-03-31 08:30:00,
2013-03-31 04:35:00,29.0,25.6,30.24,WNW,292,0.0,3.0,87,0.00,,,0.00,Weather View 32 v70,2013-03-31 08:35:00,
2013-03-31 04:40:00,29.0,26.2,30.24,WNW,292,1.0,3.0,89,0.00,,,0.00,Weather View 32 v70,2013-03-31 08:40:00,
2013-03-31 04:45:00,29.0,25.9,30.24,WNW,292,2.0,3.0,88,0.00,,,0.00,Weather View 32 v70,2013-03-31 08:45:00,
2013-03-31 04:50:00,30.0,26.6,30.23,WNW,292,1.0,4.0,87,0.00,,,0.00,Weather View 32 v70,2013-03-31 08:50:00,
2013-03-31 04:55:00,30.0,26.0,30.23,West,270,2.0,4.0,85,0.00,,,0.00,Weather View 32 v70,2013-03-31 08:55:00,
2013-03-31 05:00:00,30.0,25.8,30.23,WSW,247,3.0,6.0,84,0.00,,,0.00,Weather View 32 v70,2013-03-31 09:00:00,
2013-03-31 05:05:00,30.0,26.0,30.23,WSW,247,2.0,6.0,85,0.00,,,0.00,Weather View 32 v70,2013-03-31 09:05:00,
2013-03-31 05:10:00,30.0,26.0,30.23,WSW,247,0.0,6.0,85,0.00,,,0.00,Weather View 32 v70,2013-03-31 09:10:00,
2013-03-31 05:15:00,30.0,26.3,30.23,WSW,247,0.0,6.0,86,0.00,,,0.00,Weather View 32 v70,2013-03-31 09:15:00,
2013-03-31 05:20:00,30.0,26.6,30.23,WSW,247,1.0,6.0,87,0.00,,,0.00,Weather View 32 v70,2013-03-31 09:20:00,
2013-03-31 05:25:00,29.0,25.6,30.23,WSW,247,0.0,6.0,87,0.00,,,0.00,Weather View 32 v70,2013-03-31 09:25:00,
2013-03-31 05:30:00,29.0,25.9,30.23,WSW,247,0.0,6.0,88,0.00,,,0.00,Weather View 32 v70,2013-03-31 09:30:00,
2013-03-31 05:35:00,29.0,26.4,30.23,WSW,247,0.0,6.0,90,0.00,,,0.00,Weather View 32 v70,2013-03-31 09:35:00,
2013-03-31 05:40:00,28.0,26.0,30.24,WSW,247,0.0,6.0,92,0.00,,,0.00,Weather View 32 v70,2013-03-31 09:40:00,
2013-03-31 05:45:00,28.0,26.2,30.24,WSW,247,0.0,6.0,93,0.00,,,0.00,Weather View 32 v70,2013-03-31 09:45:00,
2013-03-31 05:50:00,28.0,26.2,30.24,WSW,247,0.0,6.0,93,0.00,,,0.00,Weather View 32 v70,2013-03-31 09:50:00,
2013-03-31 05:55:00,27.0,25.8,30.24,WSW,247,0.0,6.0,95,0.00,,,0.00,Weather View 32 v70,2013-03-31 09:55:00,
2013-03-31 06:00:00,27.0,25.8,30.25,WSW,247,0.0,5.0,95,0.00,,,0.00,Weather View 32 v70,2013-03-31 10:00:00,
2013-03-31 06:05:00,27.0,25.8,30.25,WSW,247,0.0,4.0,95,0.00,,,0.00,Weather View 32 v70,2013-03-31 10:05:00,
2013-03-31 06:10:00,27.0,26.3,30.24,WSW,247,0.0,3.0,97,0.00,,,0.00,Weather View 32 v70,2013-03-31 10:10:00,
2013-03-31 06:15:00,28.0,28.0,30.24,WSW,247,0.0,3.0,100,0.00,,,0.00,Weather View 32 v70,2013-03-31 10:15:00,
2013-03-31 06:20:00,28.0,27.3,30.23,WSW,247,0.0,3.0,97,0.00,,,0.00,Weather View 32 v70,2013-03-31 10:20:00,
2013-03-31 06:25:00,28.0,26.5,30.23,WSW,247,0.0,0.0,94,0.00,,,0.00,Weather View 32 v70,2013-03-31 10:25:00,
2013-03-31 06:30:00,29.0,26.7,30.23,WSW,247,2.0,3.0,91,0.00,,,0.00,Weather View 32 v70,2013-03-31 10:30:00,
2013-03-31 06:35:00,29.0,26.4,30.23,WSW,247,1.0,3.0,90,0.00,,,0.00,Weather View 32 v70,2013-03-31 10:35:00,
2013-03-31 06:40:00,29.0,26.2,30.23,WSW,247,0.0,3.0,89,0.00,,,0.00,Weather View 32 v70,2013-03-31 10:40:00,
2013-03-31 06:45:00,29.0,25.9,30.23,WSW,247,0.0,3.0,88,0.00,,,0.00,Weather View 32 v70,2013-03-31 10:45:00,
2013-03-31 06:50:00,29.0,25.9,30.23,WSW,247,0.0,3.0,88,0.00,,,0.00,Weather View 32 v70,2013-03-31 10:50:00,
2013-03-31 06:55:00,28.0,25.2,30.23,WSW,247,0.0,3.0,89,0.00,,,0.00,Weather View 32 v70,2013-03-31 10:55:00,
2013-03-31 07:00:00,28.0,25.4,30.23,WSW,247,0.0,3.0,90,0.00,,,0.00,Weather View 32 v70,2013-03-31 11:00:00,
2013-03-31 07:05:00,28.0,25.4,30.23,WSW,247,0.0,3.0,90,0.00,,,0.00,Weather View 32 v70,2013-03-31 11:05:00,
2013-03-31 07:10:00,29.0,26.2,30.23,WSW,247,0.0,3.0,89,0.00,,,0.00,Weather View 32 v70,2013-03-31 11:10:00,
2013-03-31 07:15:00,29.0,26.4,30.23,WSW,247,1.0,3.0,90,0.00,,,0.00,Weather View 32 v70,2013-03-31 11:15:00,
2013-03-31 07:20:00,29.0,26.2,30.23,WSW,247,0.0,3.0,89,0.00,,,0.00,Weather View 32 v70,2013-03-31 11:20:00,
2013-03-31 07:25:00,30.0,26.9,30.23,WSW,247,0.0,3.0,88,0.00,,,0.00,Weather View 32 v70,2013-03-31 11:25:00,
2013-03-31 07:30:00,30.0,26.9,30.22,WSW,247,0.0,3.0,88,0.00,,,0.00,Weather View 32 v70,2013-03-31 11:30:00,
2013-03-31 07:35:00,30.0,26.6,30.22,WSW,247,0.0,3.0,87,0.00,,,0.00,Weather View 32 v70,2013-03-31 11:35:00,
2013-03-31 07:40:00,31.0,28.1,30.21,WSW,247,0.0,3.0,89,0.00,,,0.00,Weather View 32 v70,2013-03-31 11:40:00,
2013-03-31 07:45:00,32.0,29.4,30.21,WSW,247,0.0,3.0,90,0.00,,,0.00,Weather View 32 v70,2013-03-31 11:45:00,
2013-03-31 07:50:00,32.0,28.3,30.21,WSW,247,0.0,3.0,86,0.00,,,0.00,Weather View 32 v70,2013-03-31 11:50:00,
2013-03-31 07:55:00,33.0,29.3,30.21,WSW,247,0.0,3.0,86,0.00,,,0.00,Weather View 32 v70,2013-03-31 11:55:00,
2013-03-31 08:00:00,33.0,28.7,30.20,WSW,247,0.0,3.0,84,0.00,,,0.00,Weather View 32 v70,2013-03-31 12:00:00,
2013-03-31 08:06:00,33.0,27.2,30.20,WSW,247,2.0,3.0,79,0.00,,,0.00,Weather View 32 v70,2013-03-31 12:06:00,
2013-03-31 08:11:00,34.0,28.2,30.20,WSW,247,1.0,3.0,79,0.00,,,0.00,Weather View 32 v70,2013-03-31 12:11:00,
2013-03-31 08:16:00,34.0,27.5,30.20,WSW,247,1.0,3.0,77,0.00,,,0.00,Weather View 32 v70,2013-03-31 12:16:00,
2013-03-31 08:21:00,34.0,27.5,30.20,WSW,247,0.0,3.0,77,0.00,,,0.00,Weather View 32 v70,2013-03-31 12:21:00,
2013-03-31 08:26:00,35.0,28.2,30.20,WSW,247,0.0,3.0,76,0.00,,,0.00,Weather View 32 v70,2013-03-31 12:26:00,
2013-03-31 08:31:00,35.0,28.2,30.19,WSW,247,0.0,3.0,76,0.00,,,0.00,Weather View 32 v70,2013-03-31 12:31:00,
2013-03-31 08:36:00,35.0,27.9,30.19,WSW,247,0.0,3.0,75,0.00,,,0.00,Weather View 32 v70,2013-03-31 12:36:00,
2013-03-31 08:41:00,36.0,28.2,30.19,WSW,247,1.0,3.0,73,0.00,,,0.00,Weather View 32 v70,2013-03-31 12:41:00,
2013-03-31 08:46:00,36.0,27.8,30.19,WSW,247,0.0,3.0,72,0.00,,,0.00,Weather View 32 v70,2013-03-31 12:46:00,
2013-03-31 08:51:00,37.0,27.8,30.18,WSW,247,2.0,3.0,69,0.00,,,0.00,Weather View 32 v70,2013-03-31 12:51:00,
2013-03-31 08:56:00,37.0,27.1,30.18,WSW,247,1.0,3.0,67,0.00,,,0.00,Weather View 32 v70,2013-03-31 12:56:00,
2013-03-31 09:01:00,38.0,27.6,30.17,WSW,247,2.0,3.0,66,0.00,,,0.00,Weather View 32 v70,2013-03-31 13:01:00,
2013-03-31 09:06:00,38.0,27.3,30.17,WSW,247,0.0,3.0,65,0.00,,,0.00,Weather View 32 v70,2013-03-31 13:06:00,
2013-03-31 09:11:00,39.0,27.5,30.17,WSW,247,1.0,3.0,63,0.00,,,0.00,Weather View 32 v70,2013-03-31 13:11:00,
2013-03-31 09:16:00,40.0,28.0,30.17,WSW,247,0.0,3.0,62,0.00,,,0.00,Weather View 32 v70,2013-03-31 13:16:00,
2013-03-31 09:21:00,41.0,27.8,30.16,WSW,247,0.0,3.0,59,0.00,,,0.00,Weather View 32 v70,2013-03-31 13:21:00,
2013-03-31 09:26:00,41.0,26.9,30.16,WSW,247,1.0,3.0,57,0.00,,,0.00,Weather View 32 v70,2013-03-31 13:26:00,
2013-03-31 09:31:00,42.0,27.9,30.15,WSW,247,0.0,3.0,57,0.00,,,0.00,Weather View 32 v70,2013-03-31 13:31:00,
2013-03-31 09:37:00,43.0,27.5,30.15,WSW,247,1.0,3.0,54,0.00,,,0.00,Weather View 32 v70,2013-03-31 13:37:00,
2013-03-31 09:42:00,44.0,27.9,30.14,WSW,247,1.0,4.0,53,0.00,,,0.00,Weather View 32 v70,2013-03-31 13:42:00,
2013-03-31 09:47:00,45.0,27.9,30.14,WSW,247,0.0,4.0,51,0.00,,,0.00,Weather View 32 v70,2013-03-31 13:47:00,
2013-03-31 09:52:00,45.0,27.5,30.13,WSW,247,2.0,4.0,50,0.00,,,0.00,Weather View 32 v70,2013-03-31 13:52:00,
2013-03-31 09:57:00,46.0,27.9,30.13,WSW,247,1.0,4.0,49,0.00,,,0.00,Weather View 32 v70,2013-03-31 13:57:00,
2013-03-31 10:02:00,47.0,27.8,30.12,WSW,247,0.0,4.0,47,0.00,,,0.00,Weather View 32 v70,2013-03-31 14:02:00,
2013-03-31 10:07:00,48.0,27.6,30.12,WSW,247,3.0,6.0,45,0.00,,,0.00,Weather View 32 v70,2013-03-31 14:07:00,
2013-03-31 10:12:00,49.0,28.0,30.11,South,180,2.0,6.0,44,0.00,,,0.00,Weather View 32 v70,2013-03-31 14:12:00,
2013-03-31 10:17:00,50.0,27.8,30.11,SSW,202,4.0,7.0,42,0.00,,,0.00,Weather View 32 v70,2013-03-31 14:17:00,
2013-03-31 10:22:00,51.0,27.5,30.10,SSW,202,5.0,7.0,40,0.00,,,0.00,Weather View 32 v70,2013-03-31 14:22:00,
2013-03-31 10:27:00,52.0,29.0,30.10,South,180,0.0,7.0,41,0.00,,,0.00,Weather View 32 v70,2013-03-31 14:27:00,
2013-03-31 10:32:00,52.0,28.4,30.09,SSE,157,6.0,7.0,40,0.00,,,0.00,Weather View 32 v70,2013-03-31 14:32:00,
2013-03-31 10:37:00,53.0,29.3,30.09,SSE,157,3.0,7.0,40,0.00,,,0.00,Weather View 32 v70,2013-03-31 14:37:00,
2013-03-31 10:42:00,53.0,28.7,30.09,SW,225,0.0,7.0,39,0.00,,,0.00,Weather View 32 v70,2013-03-31 14:42:00,
2013-03-31 10:47:00,54.0,27.6,30.09,SW,225,3.0,7.0,36,0.00,,,0.00,Weather View 32 v70,2013-03-31 14:47:00,
2013-03-31 10:53:00,54.0,27.6,30.08,South,180,5.0,7.0,36,0.00,,,0.00,Weather View 32 v70,2013-03-31 14:53:00,
2013-03-31 10:58:00,55.0,28.5,30.08,SW,225,5.0,8.0,36,0.00,,,0.00,Weather View 32 v70,2013-03-31 14:58:00,
2013-03-31 11:03:00,55.0,28.5,30.07,South,180,4.0,8.0,36,0.00,,,0.00,Weather View 32 v70,2013-03-31 15:03:00,
2013-03-31 11:08:00,55.0,28.5,30.07,SSW,202,6.0,11.0,36,0.00,,,0.00,Weather View 32 v70,2013-03-31 15:08:00,
2013-03-31 11:13:00,55.0,29.2,30.07,SSW,202,7.0,11.0,37,0.00,,,0.00,Weather View 32 v70,2013-03-31 15:13:00,
2013-03-31 11:18:00,55.0,29.8,30.07,South,180,6.0,11.0,38,0.00,,,0.00,Weather View 32 v70,2013-03-31 15:18:00,
2013-03-31 11:23:00,55.0,29.8,30.07,SSW,202,1.0,11.0,38,0.00,,,0.00,Weather View 32 v70,2013-03-31 15:23:00,
2013-03-31 11:28:00,56.0,30.7,30.07,South,180,6.0,11.0,38,0.00,,,0.00,Weather View 32 v70,2013-03-31 15:28:00,
2013-03-31 11:33:00,56.0,29.4,30.06,SW,225,2.0,11.0,36,0.00,,,0.00,Weather View 32 v70,2013-03-31 15:33:00,
2013-03-31 11:38:00,56.0,28.0,30.06,South,180,3.0,11.0,34,0.00,,,0.00,Weather View 32 v70,2013-03-31 15:38:00,
2013-03-31 11:43:00,56.0,27.2,30.06,SSW,202,6.0,11.0,33,0.00,,,0.00,Weather View 32 v70,2013-03-31 15:43:00,
2013-03-31 11:48:00,56.0,28.0,30.06,South,180,6.0,11.0,34,0.00,,,0.00,Weather View 32 v70,2013-03-31 15:48:00,
2013-03-31 11:53:00,56.0,25.7,30.05,SSW,202,2.0,12.0,31,0.00,,,0.00,Weather View 32 v70,2013-03-31 15:53:00,
2013-03-31 11:58:00,57.0,26.6,30.05,SSW,202,7.0,12.0,31,0.00,,,0.00,Weather View 32 v70,2013-03-31 15:58:00,
2013-03-31 12:03:00,56.0,27.2,30.05,SSW,202,7.0,12.0,33,0.00,,,0.00,Weather View 32 v70,2013-03-31 16:03:00,
2013-03-31 12:08:00,56.0,25.7,30.05,South,180,6.0,12.0,31,0.00,,,0.00,Weather View 32 v70,2013-03-31 16:08:00,
2013-03-31 12:13:00,56.0,25.7,30.05,South,180,4.0,12.0,31,0.00,,,0.00,Weather View 32 v70,2013-03-31 16:13:00,
2013-03-31 12:18:00,56.0,26.5,30.05,SSW,202,6.0,12.0,32,0.00,,,0.00,Weather View 32 v70,2013-03-31 16:18:00,
2013-03-31 12:23:00,56.0,25.7,30.05,SSW,202,6.0,12.0,31,0.00,,,0.00,Weather View 32 v70,2013-03-31 16:23:00,
2013-03-31 12:28:00,56.0,25.7,30.05,SW,225,7.0,12.0,31,0.00,,,0.00,Weather View 32 v70,2013-03-31 16:28:00,
2013-03-31 12:33:00,56.0,26.5,30.05,SSW,202,6.0,12.0,32,0.00,,,0.00,Weather View 32 v70,2013-03-31 16:33:00,
2013-03-31 12:38:00,56.0,26.5,30.05,South,180,6.0,12.0,32,0.00,,,0.00,Weather View 32 v70,2013-03-31 16:38:00,
2013-03-31 12:43:00,56.0,27.2,30.04,South,180,8.0,13.0,33,0.00,,,0.00,Weather View 32 v70,2013-03-31 16:43:00,
2013-03-31 12:48:00,56.0,27.2,30.04,SW,225,7.0,13.0,33,0.00,,,0.00,Weather View 32 v70,2013-03-31 16:48:00,
2013-03-31 12:53:00,55.0,26.4,30.04,South,180,7.0,13.0,33,0.00,,,0.00,Weather View 32 v70,2013-03-31 16:53:00,
2013-03-31 12:58:00,55.0,26.4,30.04,SSW,202,6.0,13.0,33,0.00,,,0.00,Weather View 32 v70,2013-03-31 16:58:00,
2013-03-31 13:03:00,55.0,27.1,30.03,SW,225,7.0,13.0,34,0.00,,,0.00,Weather View 32 v70,2013-03-31 17:03:00,
2013-03-31 13:09:00,55.0,27.1,30.03,SW,225,7.0,13.0,34,0.00,,,0.00,Weather View 32 v70,2013-03-31 17:09:00,
2013-03-31 13:14:00,56.0,28.0,30.03,South,180,6.0,13.0,34,0.00,,,0.00,Weather View 32 v70,2013-03-31 17:14:00,
2013-03-31 13:19:00,56.0,27.2,30.03,SW,225,7.0,13.0,33,0.00,,,0.00,Weather View 32 v70,2013-03-31 17:19:00,
2013-03-31 13:24:00,57.0,26.6,30.03,SW,225,6.0,13.0,31,0.00,,,0.00,Weather View 32 v70,2013-03-31 17:24:00,
2013-03-31 13:29:00,57.0,25.8,30.01,SW,225,10.0,13.0,30,0.00,,,0.00,Weather View 32 v70,2013-03-31 17:29:00,
2013-03-31 13:34:00,57.0,26.6,30.01,South,180,9.0,13.0,31,0.00,,,0.00,Weather View 32 v70,2013-03-31 17:34:00,
2013-03-31 13:39:00,57.0,25.8,30.01,SSW,202,8.0,13.0,30,0.00,,,0.00,Weather View 32 v70,2013-03-31 17:39:00,
2013-03-31 13:44:00,56.0,24.1,30.01,South,180,7.0,13.0,29,0.00,,,0.00,Weather View 32 v70,2013-03-31 17:44:00,
2013-03-31 13:49:00,56.0,25.7,30.01,SW,225,6.0,13.0,31,0.00,,,0.00,Weather View 32 v70,2013-03-31 17:49:00,
2013-03-31 13:54:00,56.0,26.5,30.01,South,180,7.0,13.0,32,0.00,,,0.00,Weather View 32 v70,2013-03-31 17:54:00,
2013-03-31 13:59:00,56.0,25.7,30.01,SW,225,10.0,12.0,31,0.00,,,0.00,Weather View 32 v70,2013-03-31 17:59:00,
2013-03-31 14:04:00,56.0,26.5,30.01,SW,225,8.0,13.0,32,0.00,,,0.00,Weather View 32 v70,2013-03-31 18:04:00,
2013-03-31 14:09:00,56.0,25.7,30.00,SSW,202,6.0,13.0,31,0.00,,,0.00,Weather View 32 v70,2013-03-31 18:09:00,
2013-03-31 14:14:00,56.0,25.7,30.00,SSW,202,5.0,13.0,31,0.00,,,0.00,Weather View 32 v70,2013-03-31 18:14:00,
2013-03-31 14:19:00,56.0,25.7,30.00,SSW,202,9.0,13.0,31,0.00,,,0.00,Weather View 32 v70,2013-03-31 18:19:00,
2013-03-31 14:24:00,56.0,27.2,30.00,SSW,202,1.0,13.0,33,0.00,,,0.00,Weather View 32 v70,2013-03-31 18:24:00,
2013-03-31 14:29:00,56.0,27.2,29.99,South,180,6.0,13.0,33,0.00,,,0.00,Weather View 32 v70,2013-03-31 18:29:00,
2013-03-31 14:34:00,55.0,27.1,29.99,SW,225,7.0,13.0,34,0.00,,,0.00,Weather View 32 v70,2013-03-31 18:34:00,
2013-03-31 14:39:00,55.0,27.1,29.99,SSW,202,6.0,13.0,34,0.00,,,0.00,Weather View 32 v70,2013-03-31 18:39:00,
2013-03-31 14:44:00,55.0,27.1,29.99,SSW,202,7.0,13.0,34,0.00,,,0.00,Weather View 32 v70,2013-03-31 18:44:00,
2013-03-31 14:49:00,55.0,26.4,29.98,SSW,202,7.0,13.0,33,0.00,,,0.00,Weather View 32 v70,2013-03-31 18:49:00,
2013-03-31 14:54:00,55.0,26.4,29.98,SSW,202,6.0,13.0,33,0.00,,,0.00,Weather View 32 v70,2013-03-31 18:54:00,
2013-03-31 14:59:00,56.0,27.2,29.97,SW,225,6.0,13.0,33,0.00,,,0.00,Weather View 32 v70,2013-03-31 18:59:00,
2013-03-31 15:04:00,56.0,27.2,29.97,SSW,202,6.0,13.0,33,0.00,,,0.00,Weather View 32 v70,2013-03-31 19:04:00,
2013-03-31 15:09:00,56.0,27.2,29.97,SSW,202,8.0,13.0,33,0.00,,,0.00,Weather View 32 v70,2013-03-31 19:09:00,
2013-03-31 15:14:00,56.0,27.2,29.97,SW,225,7.0,13.0,33,0.00,,,0.00,Weather View 32 v70,2013-03-31 19:14:00,
2013-03-31 15:19:00,56.0,27.2,29.97,SW,225,5.0,13.0,33,0.00,,,0.00,Weather View 32 v70,2013-03-31 19:19:00,
2013-03-31 15:24:00,55.0,27.1,29.97,SSE,157,7.0,13.0,34,0.00,,,0.00,Weather View 32 v70,2013-03-31 19:24:00,
2013-03-31 15:30:00,55.0,27.1,29.97,South,180,5.0,13.0,34,0.00,,,0.00,Weather View 32 v70,2013-03-31 19:30:00,
2013-03-31 15:35:00,55.0,27.1,29.97,South,180,9.0,13.0,34,0.00,,,0.00,Weather View 32 v70,2013-03-31 19:35:00,
2013-03-31 15:40:00,55.0,27.1,29.97,South,180,7.0,13.0,34,0.00,,,0.00,Weather View 32 v70,2013-03-31 19:40:00,
2013-03-31 15:45:00,54.0,26.2,29.97,SW,225,5.0,13.0,34,0.00,,,0.00,Weather View 32 v70,2013-03-31 19:45:00,
2013-03-31 15:50:00,54.0,27.6,29.97,SW,225,8.0,12.0,36,0.00,,,0.00,Weather View 32 v70,2013-03-31 19:50:00,
2013-03-31 15:55:00,54.0,28.9,29.97,SSW,202,6.0,12.0,38,0.00,,,0.00,Weather View 32 v70,2013-03-31 19:55:00,
2013-03-31 16:00:00,53.0,29.9,29.98,SSW,202,6.0,12.0,41,0.00,,,0.00,Weather View 32 v70,2013-03-31 20:00:00,
2013-03-31 16:05:00,53.0,31.1,29.98,SSW,202,7.0,12.0,43,0.00,,,0.00,Weather View 32 v70,2013-03-31 20:05:00,
2013-03-31 16:10:00,53.0,31.6,29.98,SW,225,7.0,12.0,44,0.00,,,0.00,Weather View 32 v70,2013-03-31 20:10:00,
2013-03-31 16:15:00,53.0,31.6,29.98,SSW,202,6.0,11.0,44,0.00,,,0.00,Weather View 32 v70,2013-03-31 20:15:00,
2013-03-31 16:20:00,53.0,31.6,29.97,SSW,202,7.0,12.0,44,0.00,,,0.00,Weather View 32 v70,2013-03-31 20:20:00,
2013-03-31 16:25:00,52.0,31.8,29.97,SSW,202,7.0,12.0,46,0.00,,,0.00,Weather View 32 v70,2013-03-31 20:25:00,
2013-03-31 16:30:00,52.0,32.9,29.98,South,180,6.0,12.0,48,0.00,,,0.00,Weather View 32 v70,2013-03-31 20:30:00,
2013-03-31 16:35:00,51.0,35.4,29.98,SW,225,9.0,12.0,55,0.00,,,0.00,Weather View 32 v70,2013-03-31 20:35:00,
2013-03-31 16:40:00,50.0,34.4,29.99,SW,225,9.0,12.0,55,0.00,,,0.00,Weather View 32 v70,2013-03-31 20:40:00,
2013-03-31 16:45:00,50.0,34.9,29.99,SSW,202,7.0,12.0,56,0.00,,,0.00,Weather View 32 v70,2013-03-31 20:45:00,
2013-03-31 16:50:00,49.0,34.4,29.98,South,180,6.0,12.0,57,0.00,,,0.00,Weather View 32 v70,2013-03-31 20:50:00,
2013-03-31 16:55:00,49.0,34.0,29.98,SSE,157,6.0,12.0,56,0.00,,,0.00,Weather View 32 v70,2013-03-31 20:55:00,
2013-03-31 17:00:00,49.0,33.5,29.98,SSW,202,5.0,12.0,55,0.00,,,0.00,Weather View 32 v70,2013-03-31 21:00:00,
2013-03-31 17:05:00,49.0,33.5,29.98,South,180,4.0,12.0,55,0.00,,,0.00,Weather View 32 v70,2013-03-31 21:05:00,
2013-03-31 17:10:00,49.0,32.1,29.98,SW,225,6.0,12.0,52,0.00,,,0.00,Weather View 32 v70,2013-03-31 21:10:00,
2013-03-31 17:15:00,49.0,32.1,29.98,South,180,9.0,12.0,52,0.00,,,0.00,Weather View 32 v70,2013-03-31 21:15:00,
2013-03-31 17:20:00,50.0,32.6,29.97,SSW,202,6.0,12.0,51,0.00,,,0.00,Weather View 32 v70,2013-03-31 21:20:00,
2013-03-31 17:25:00,50.0,33.0,29.97,South,180,6.0,12.0,52,0.00,,,0.00,Weather View 32 v70,2013-03-31 21:25:00,
2013-03-31 17:30:00,50.0,33.0,29.96,SSW,202,2.0,12.0,52,0.00,,,0.00,Weather View 32 v70,2013-03-31 21:30:00,
2013-03-31 17:35:00,50.0,33.5,29.96,South,180,7.0,12.0,53,0.00,,,0.00,Weather View 32 v70,2013-03-31 21:35:00,
2013-03-31 17:40:00,50.0,34.4,29.95,South,180,3.0,11.0,55,0.00,,,0.00,Weather View 32 v70,2013-03-31 21:40:00,
2013-03-31 17:45:00,50.0,34.4,29.95,SSE,157,7.0,11.0,55,0.00,,,0.00,Weather View 32 v70,2013-03-31 21:45:00,
2013-03-31 17:50:00,49.0,34.4,29.95,South,180,5.0,11.0,57,0.00,,,0.00,Weather View 32 v70,2013-03-31 21:50:00,
2013-03-31 17:55:00,49.0,34.8,29.95,SSW,202,2.0,11.0,58,0.00,,,0.00,Weather View 32 v70,2013-03-31 21:55:00,
2013-03-31 18:00:00,49.0,34.8,29.94,SE,135,5.0,11.0,58,0.00,,,0.00,Weather View 32 v70,2013-03-31 22:00:00,
2013-03-31 18:05:00,49.0,35.7,29.94,SSE,157,1.0,11.0,60,0.00,,,0.00,Weather View 32 v70,2013-03-31 22:05:00,
2013-03-31 18:10:00,49.0,35.7,29.95,SW,225,2.0,11.0,60,0.00,,,0.00,Weather View 32 v70,2013-03-31 22:10:00,
2013-03-31 18:15:00,49.0,35.7,29.95,South,180,2.0,11.0,60,0.00,,,0.00,Weather View 32 v70,2013-03-31 22:15:00,
2013-03-31 18:20:00,49.0,35.7,29.94,South,180,4.0,10.0,60,0.00,,,0.00,Weather View 32 v70,2013-03-31 22:20:00,
2013-03-31 18:25:00,49.0,36.1,29.94,South,180,3.0,9.0,61,0.00,,,0.00,Weather View 32 v70,2013-03-31 22:25:00,
2013-03-31 18:30:00,49.0,36.5,29.95,SSW,202,2.0,9.0,62,0.00,,,0.00,Weather View 32 v70,2013-03-31 22:30:00,
2013-03-31 18:35:00,49.0,36.5,29.95,SSW,202,3.0,9.0,62,0.00,,,0.00,Weather View 32 v70,2013-03-31 22:35:00,
2013-03-31 18:40:00,49.0,36.5,29.95,South,180,2.0,9.0,62,0.00,,,0.00,Weather View 32 v70,2013-03-31 22:40:00,
2013-03-31 18:45:00,49.0,36.9,29.95,SSW,202,3.0,9.0,63,0.00,,,0.00,Weather View 32 v70,2013-03-31 22:45:00,
2013-03-31 18:50:00,49.0,37.3,29.93,South,180,1.0,7.0,64,0.00,,,0.00,Weather View 32 v70,2013-03-31 22:50:00,
2013-03-31 18:55:00,49.0,37.3,29.93,SSW,202,4.0,9.0,64,0.00,,,0.00,Weather View 32 v70,2013-03-31 22:55:00,
2013-03-31 19:00:00,49.0,37.7,29.93,South,180,4.0,9.0,65,0.00,,,0.00,Weather View 32 v70,2013-03-31 23:00:00,
2013-03-31 19:05:00,49.0,37.7,29.93,SSE,157,2.0,9.0,65,0.00,,,0.00,Weather View 32 v70,2013-03-31 23:05:00,
2013-03-31 19:10:00,49.0,37.7,29.92,South,180,2.0,9.0,65,0.00,,,0.00,Weather View 32 v70,2013-03-31 23:10:00,
2013-03-31 19:15:00,49.0,38.1,29.92,SSW,202,5.0,9.0,66,0.00,,,0.00,Weather View 32 v70,2013-03-31 23:15:00,
2013-03-31 19:20:00,49.0,38.1,29.91,SSE,157,3.0,9.0,66,0.00,,,0.00,Weather View 32 v70,2013-03-31 23:20:00,
2013-03-31 19:25:00,49.0,38.5,29.91,South,180,3.0,9.0,67,0.00,,,0.00,Weather View 32 v70,2013-03-31 23:25:00,
2013-03-31 19:30:00,49.0,38.5,29.91,South,180,4.0,9.0,67,0.00,,,0.00,Weather View 32 v70,2013-03-31 23:30:00,
2013-03-31 19:35:00,49.0,38.5,29.91,SSE,157,3.0,9.0,67,0.00,,,0.00,Weather View 32 v70,2013-03-31 23:35:00,
2013-03-31 19:40:00,49.0,38.5,29.89,SSE,157,0.0,9.0,67,0.00,,,0.00,Weather View 32 v70,2013-03-31 23:40:00,
2013-03-31 19:45:00,48.0,37.9,29.89,South,180,3.0,9.0,68,0.00,,,0.00,Weather View 32 v70,2013-03-31 23:45:00,
2013-03-31 19:50:00,48.0,37.9,29.88,SSE,157,1.0,9.0,68,0.00,,,0.00,Weather View 32 v70,2013-03-31 23:50:00,
2013-03-31 19:55:00,48.0,37.9,29.88,SSE,157,1.0,7.0,68,0.00,,,0.00,Weather View 32 v70,2013-03-31 23:55:00,
2013-03-31 20:00:00,48.0,37.9,29.87,SSE,157,2.0,7.0,68,0.00,,,0.00,Weather View 32 v70,2013-04-01 00:00:00,
2013-03-31 20:05:00,48.0,37.9,29.87,SSW,202,4.0,7.0,68,0.00,,,0.00,Weather View 32 v70,2013-04-01 00:05:00,
2013-03-31 20:10:00,48.0,38.3,29.87,SE,135,2.0,7.0,69,0.00,,,0.00,Weather View 32 v70,2013-04-01 00:10:00,
2013-03-31 20:15:00,48.0,38.7,29.87,ESE,112,4.0,7.0,70,0.00,,,0.00,Weather View 32 v70,2013-04-01 00:15:00,
2013-03-31 20:20:00,48.0,38.7,29.87,SSE,157,4.0,7.0,70,0.00,,,0.00,Weather View 32 v70,2013-04-01 00:20:00,
2013-03-31 20:25:00,48.0,39.0,29.87,South,180,4.0,7.0,71,0.00,,,0.00,Weather View 32 v70,2013-04-01 00:25:00,
2013-03-31 20:30:00,48.0,39.4,29.86,South,180,1.0,7.0,72,0.00,,,0.00,Weather View 32 v70,2013-04-01 00:30:00,
2013-03-31 20:35:00,48.0,39.4,29.86,South,180,0.0,7.0,72,0.00,,,0.00,Weather View 32 v70,2013-04-01 00:35:00,
2013-03-31 20:40:00,48.0,39.7,29.85,ESE,112,0.0,7.0,73,0.00,,,0.00,Weather View 32 v70,2013-04-01 00:40:00,
2013-03-31 20:45:00,48.0,39.7,29.85,South,180,2.0,7.0,73,0.00,,,0.00,Weather View 32 v70,2013-04-01 00:45:00,
2013-03-31 20:51:00,48.0,40.1,29.84,South,180,1.0,7.0,74,0.00,,,0.00,Weather View 32 v70,2013-04-01 00:51:00,
2013-03-31 20:56:00,48.0,40.1,29.84,South,180,3.0,7.0,74,0.00,,,0.00,Weather View 32 v70,2013-04-01 00:56:00,
2013-03-31 21:01:00,48.0,40.1,29.84,SSE,157,0.0,7.0,74,0.00,,,0.00,Weather View 32 v70,2013-04-01 01:01:00,
2013-03-31 21:06:00,47.0,39.1,29.84,SSE,157,2.0,7.0,74,0.00,,,0.00,Weather View 32 v70,2013-04-01 01:06:00,
2013-03-31 21:11:00,47.0,39.1,29.82,East,90,2.0,7.0,74,0.00,,,0.00,Weather View 32 v70,2013-04-01 01:11:00,
2013-03-31 21:16:00,47.0,39.5,29.82,SSE,157,2.0,7.0,75,0.00,,,0.00,Weather View 32 v70,2013-04-01 01:16:00,
2013-03-31 21:21:00,47.0,39.8,29.82,SE,135,1.0,7.0,76,0.00,,,0.00,Weather View 32 v70,2013-04-01 01:21:00,
2013-03-31 21:26:00,47.0,39.8,29.82,South,180,2.0,7.0,76,0.00,,,0.00,Weather View 32 v70,2013-04-01 01:26:00,
2013-03-31 21:31:00,47.0,39.8,29.82,SSE,157,3.0,7.0,76,0.00,,,0.00,Weather View 32 v70,2013-04-01 01:31:00,
2013-03-31 21:37:00,47.0,40.2,29.82,SE,135,0.0,7.0,77,0.00,,,0.00,Weather View 32 v70,2013-04-01 01:37:00,
2013-03-31 21:42:00,47.0,40.8,29.82,SSE,157,6.0,7.0,79,0.00,,,0.00,Weather View 32 v70,2013-04-01 01:42:00,
2013-03-31 21:47:00,47.0,41.5,29.82,SSW,202,5.0,7.0,81,0.00,,,0.00,Weather View 32 v70,2013-04-01 01:47:00,
2013-03-31 21:52:00,47.0,41.8,29.82,South,180,1.0,7.0,82,0.00,,,0.00,Weather View 32 v70,2013-04-01 01:52:00,
2013-03-31 21:57:00,47.0,42.4,29.82,South,180,3.0,7.0,84,0.00,,,0.00,Weather View 32 v70,2013-04-01 01:57:00,
2013-03-31 22:02:00,47.0,43.0,29.81,South,180,0.0,7.0,86,0.00,,,0.00,Weather View 32 v70,2013-04-01 02:02:00,
2013-03-31 22:07:00,46.0,42.9,29.81,SE,135,3.0,7.0,89,0.00,,,0.00,Weather View 32 v70,2013-04-01 02:07:00,
2013-03-31 22:12:00,46.0,43.5,29.81,SSW,202,3.0,7.0,91,0.00,,,0.00,Weather View 32 v70,2013-04-01 02:12:00,
2013-03-31 22:17:00,46.0,44.4,29.81,SSE,157,0.0,7.0,94,0.00,,,0.00,Weather View 32 v70,2013-04-01 02:17:00,
2013-03-31 22:22:00,45.0,43.4,29.80,SSE,157,1.0,7.0,94,0.00,,,0.00,Weather View 32 v70,2013-04-01 02:22:00,
2013-03-31 22:27:00,45.0,43.9,29.80,SSW,202,2.0,7.0,96,0.01,,,0.01,Weather View 32 v70,2013-04-01 02:27:00,
2013-03-31 22:33:00,45.0,44.5,29.79,SE,135,2.0,7.0,98,0.01,,,0.01,Weather View 32 v70,2013-04-01 02:33:00,
2013-03-31 22:38:00,44.0,43.7,29.79,SSE,157,3.0,7.0,99,0.02,,,0.02,Weather View 32 v70,2013-04-01 02:38:00,
2013-03-31 22:43:00,44.0,44.0,29.79,South,180,2.0,7.0,100,0.03,,,0.03,Weather View 32 v70,2013-04-01 02:43:00,
2013-03-31 22:48:00,44.0,44.0,29.79,SSE,157,0.0,7.0,100,0.04,,,0.04,Weather View 32 v70,2013-04-01 02:48:00,
2013-03-31 22:53:00,44.0,44.0,29.79,South,180,0.0,7.0,100,0.05,,,0.05,Weather View 32 v70,2013-04-01 02:53:00,
2013-03-31 22:58:00,44.0,44.0,29.79,SE,135,0.0,7.0,100,0.00,,,0.05,Weather View 32 v70,2013-04-01 02:58:00,
2013-03-31 23:03:00,44.0,44.0,29.77,East,90,3.0,7.0,100,0.00,,,0.06,Weather View 32 v70,2013-04-01 03:03:00,
2013-03-31 23:08:00,43.0,43.0,29.77,East,90,0.0,7.0,100,0.06,,,0.06,Weather View 32 v70,2013-04-01 03:08:00,
2013-03-31 23:13:00,44.0,44.0,29.76,East,90,0.0,7.0,100,0.06,,,0.06,Weather View 32 v70,2013-04-01 03:13:00,
2013-03-31 23:18:00,43.0,43.0,29.76,NE,45,6.0,7.0,100,0.08,,,0.08,Weather View 32 v70,2013-04-01 03:18:00,
2013-03-31 23:23:00,43.0,43.0,29.75,South,180,0.0,7.0,100,0.08,,,0.09,Weather View 32 v70,2013-04-01 03:23:00,
2013-03-31 23:28:00,43.0,43.0,29.75,South,180,0.0,7.0,100,0.09,,,0.10,Weather View 32 v70,2013-04-01 03:28:00,
2013-03-31 23:33:00,43.0,43.0,29.75,SW,225,2.0,7.0,100,0.10,,,0.11,Weather View 32 v70,2013-04-01 03:33:00,
2013-03-31 23:38:00,43.0,43.0,29.75,East,90,3.0,7.0,100,0.10,,,0.12,Weather View 32 v70,2013-04-01 03:38:00,
2013-03-31 23:43:00,43.0,43.0,29.74,South,180,0.0,7.0,100,0.11,,,0.14,Weather View 32 v70,2013-04-01 03:43:00,
2013-03-31 23:48:00,43.0,43.0,29.74,West,270,0.0,7.0,100,0.12,,,0.16,Weather View 32 v70,2013-04-01 03:48:00,
2013-03-31 23:53:00,43.0,43.0,29.74,West,270,0.0,7.0,100,0.14,,,0.19,Weather View 32 v70,2013-04-01 03:53:00,
2013-03-31 23:58:00,43.0,43.0,29.74,East,90,3.0,7.0,100,0.16,,,0.21,Weather View 32 v70,2013-04-01 03:58:00,